Location: Shenandoah County Park
(38.9356°N, 78.4524°W)
Time: 10:04:05
(UTC-04:00)

S-56A Canister/Altair - Visible Passes

Search period start: 26 May 2024 00:00
Search period end: 05 June 2024 00:00
Orbit: 638 x 2488 km, 38.9° (Epoch: 25 May)

Date Brightness Start Highest point End Pass type
(mag) Time Alt. Az. Time Alt. Az. Time Alt. Az.
26 May 11.3 02:45:57 12° SSE 02:51:43 16° SE 02:58:40 10° ESE visible
26 May 10.4 04:43:17 10° SSW 04:56:37 43° SE 05:07:30 10° E visible
27 May 11.3 02:13:58 11° SE 02:17:39 13° SE 02:22:57 10° ESE visible
27 May 10.5 04:11:18 16° SSW 04:22:22 40° SE 04:33:34 10° E visible
28 May 11.4 01:42:51 10° SE 01:43:38 10° SE 01:44:26 10° SE visible
28 May 10.6 03:39:14 20° S 03:48:07 36° SE 03:59:29 10° E visible
29 May 10.7 03:07:06 23° S 03:13:53 33° SE 03:25:16 10° E visible
29 May 10.0 05:04:40 10° SW 05:19:27 66° SSE 05:31:09 10° ENE visible
30 May 10.7 02:34:53 25° SSE 02:39:39 29° SE 02:50:51 10° E visible
30 May 10.1 04:32:12 15° SW 04:45:05 62° SSE 04:57:18 10° ENE visible
31 May 10.8 02:02:36 24° SSE 02:05:29 26° SE 02:16:14 10° E visible
31 May 10.1 03:59:54 22° SW 04:10:41 58° SSE 04:23:22 10° ENE visible
01 Jun 10.9 01:30:15 22° SE 01:31:22 22° SE 01:41:22 10° E visible
01 Jun 10.2 03:27:33 28° SSW 03:36:17 54° SSE 03:49:19 10° ENE visible
02 Jun 11.0 00:57:49 19° SE 00:57:49 19° SE 01:06:10 10° E visible
02 Jun 10.2 02:55:07 33° SSW 03:01:53 50° SE 03:15:08 10° ENE visible
02 Jun 10.0 04:52:55 10° WSW 05:08:09 81° SSE 05:20:40 10° E visible
03 Jun 11.1 00:25:18 15° ESE 00:25:18 15° ESE 00:30:28 10° E visible
03 Jun 10.2 02:22:36 36° S 02:27:32 45° SE 02:40:50 10° ENE visible
03 Jun 10.0 04:19:53 14° WSW 04:33:38 78° SSE 04:46:44 10° ENE visible
03 Jun 11.3 23:52:43 11° ESE 23:52:43 11° ESE 23:53:45 10° ESE visible
04 Jun 10.2 01:50:00 37° SSE 01:53:13 41° SE 02:06:25 10° ENE visible
04 Jun 10.0 03:47:17 20° WSW 03:59:05 75° SSE 04:12:44 10° ENE visible
